Weather Roundup
Issued by NWS Chicago, IL

Home | Current Version | Previous Version | Graphics & Text | Print | Product List | Glossary On
Versions: 1 2 3 4 5 6 7 8 9 10 11 12 13 14 15 16 17 18 19 20 21 22 23 24 25 26 27 28 29 30 31 32 33 34 35 36 37 38 39 40 41 42 43 44 45 46 47 48 49 50
000
NZUS59 KLOT 062303
HRRLOT

CHICAGO AREA WEATHER ROUNDUP
NATIONAL WEATHER SERVICE CHICAGO/ROMEOVILLE IL
500 PM CST SAT FEB 06 2016

NOTE: "FAIR" INDICATES FEW OR NO CLOUDS BELOW 12,000 FEET WITH NO
SIGNIFICANT WEATHER AND/OR OBSTRUCTIONS TO VISIBILITY.

* THESE STATIONS ARE NOT UNDER NWS QUALITY CONTROL. THEY ALSO MAY NOT
  REPORT WEATHER SUCH AS PRECIPITATION OR FOG.

ILZ005-006-012>014-019>023-070000-
NORTHEAST ILLINOIS

CITY           SKY/WX    TMP DP  RH WIND       PRES   REMARKS
OHARE          PTCLDY    39  28  64 SW8       30.14S
MIDWAY         PTCLDY    41  27  57 SW9       30.15F
AURORA         CLEAR     39  29  67 S7        30.14F
LANSING*       CLEAR     38  29  69 SW7       30.17F
WAUKEGAN       CLEAR     37  28  70 SW12      30.12F
DUPAGE AIRPORT CLEAR     38  27  64 SW10      30.13F
WHEELING       CLEAR     40  27  59 SW10      30.15S
$$

WIZ051-052-058>065-066-070>072-070000-
SOUTHEAST WISCONSIN

CITY           SKY/WX    TMP DP  RH WIND       PRES   REMARKS
MILWAUKEE      CLOUDY    35  26  69 W12       30.12S WCI  27
KENOSHA*       CLEAR     36  27  69 W7        30.12F
RACINE*        CLOUDY    35  27  72 W5        30.14S WCI  31
BURLINGTON     CLEAR     33  26  74 W7        30.12S WCI  27
WAUKESHA       PTCLDY    30  25  80 W10       30.12F WCI  21
$$

INZ001>003-010>013-019-020-070000-
NORTHWEST INDIANA

CITY           SKY/WX    TMP DP  RH WIND       PRES   REMARKS
GARY*          PTCLDY    41  27  56 SW12      30.17F
MICHIGAN CITY* NOT AVBL
RENSSELAER*    NOT AVBL
VALPARAISO     CLEAR     38  28  67 SW7       30.18S
$$

LMZ740>746-070000-
SOUTHERN LAKE MICHIGAN

STATION/POSITION TIME  SKY/WX   TEMP WIND        PRES    VSBY
                                AIR  DIR/SP/G
                 (UTC)          (F)  (DEG/KT/KT) (MB)    (MI)
HARRISON CRIB    2200            41  220/ 13/ 15   N/A
BURNHAM HARBOR   2300            41  210/  3/ 10   N/A
CALUMET HARBOR   2200            41              1020.7F
BURNS HARBOR     2200            40  230/ 11/ 16 1022.4F
MICHIGAN CITY    2200            39  200/ 14/ 16   N/A
$$

ABBREVIATIONS USED IN REMARKS
   TC - TEMPERATURE IN CELSIUS
  WCI - WIND CHILL INDEX
   HX - HEAT INDEX
  VSB - VISIBILITY
$$



USA.gov is the U.S. government's official web portal to all federal, state and local government web resources and services.